New Orleans Lakefront, LA

4:11 PM CST on November 13, 2019 (GMT -0600)
Lakefront

Weather History for KNEW - September, 2019

Change the Weather History Date:

Saturday, September 7, 2019

  Actual Average Record
Temperature  
Mean Temperature 88 °F 82 °F  
Max Temperature 99 °F 89 °F 99 °F (2019)
Min Temperature 76 °F 74 °F 63 °F (1984)
Degree Days  
Heating Degree Days 0 0  
Month to date heating degree days 0 0  
Since 1 July heating degree days 0 0  
Cooling Degree Days 23 17  
Month to date cooling degree days 156 119  
Year to date cooling degree days 2797 2365  
Growing Degree Days 38 (Base 50)    
Moisture  
Dew Point 75 °F    
Average Humidity 65    
Maximum Humidity 91    
Minimum Humidity 38    
Precipitation  
Precipitation 0.00 in 0.19 in 2.86 in (1974)
Month to date precipitation T 1.35  
Year to date precipitation 46.76 45.56  
Snow  
Snow 0.00 in - - ()
Month to date snowfall 0.0  
Since 1 July snowfall 0.0  
Since 1 September snowfall 0.0  
Snow Depth 0.00 in    
Sea Level Pressure  
Sea Level Pressure 29.96 in    
Wind  
Wind Speed 4 mph (WNW)    
Max Wind Speed 10 mph    
Max Gust Speed 14 mph    
Visibility 8 miles    
Events      
T = Trace of Precipitation, MM = Missing Value Source: NWS Daily Summary

Daily Weather History Graph

Daily Weather History Graph

Search for Another Location

Airport or City:

Astronomy

Sep. 07, 2019 Rise Set
Actual Time 6:40 AM CDT 7:15 PM CDT
Civil Twilight 6:16 AM CDT 7:39 PM CDT
Nautical Twilight 5:47 AM CDT 8:08 PM CDT
Astronomical Twilight 5:18 AM CDT 8:36 PM CDT
Moon 3:11 PM CDT (9/7) 12:51 AM CDT (9/7)
Length of Visible Light 13h 23m
Length of Day
12h 35m
Waxing Gibbous, 66% of the Moon is Illuminated
Sep 7
Waxing Gibbous
Sep 13
Full
Sep 21
Last Quarter
Sep 28
New
Oct 5
First Quarter

Hourly Weather History & Observations

Time (CDT) Temp. Heat Index Dew Point Humidity Pressure Visibility Wind Dir Wind Speed Gust Speed Precip Events Conditions
12:53 AM 86.0 °F 93.0 °F 73.0 °F 65% 29.97 in 10.0 mi Calm Calm - N/A   Clear
1:53 AM 84.0 °F 91.2 °F 73.9 °F 72% 29.97 in 9.0 mi Calm Calm - N/A   Clear
2:53 AM 84.0 °F 90.2 °F 73.0 °F 69% 29.96 in 10.0 mi Calm Calm - N/A   Clear
3:53 AM 87.1 °F 94.5 °F 73.0 °F 63% 29.96 in 10.0 mi NW 3.5 mph - N/A   Clear
4:53 AM 86.0 °F 93.8 °F 73.9 °F 67% 29.96 in 9.0 mi NW 3.5 mph - N/A   Clear
5:53 AM 84.0 °F 93.7 °F 77.0 °F 79% 29.97 in 9.0 mi SW 5.8 mph - N/A   Clear
6:53 AM 84.9 °F 97.5 °F 79.0 °F 82% 29.99 in 6.0 mi West 10.4 mph - N/A   Haze
7:53 AM 86.0 °F 100.8 °F 80.1 °F 82% 30.01 in 8.0 mi NW 9.2 mph - N/A   Clear
8:53 AM 88.0 °F 100.2 °F 77.0 °F 70% 30.01 in 8.0 mi North 6.9 mph - N/A   Clear
9:53 AM 88.0 °F 98.5 °F 75.9 °F 67% 30.02 in 6.0 mi NW 5.8 mph - N/A   Haze
10:53 AM 89.1 °F 100.2 °F 75.9 °F 65% 30.01 in 6.0 mi WNW 5.8 mph - N/A   Haze
11:53 AM 89.1 °F 101.4 °F 77.0 °F 67% 30.00 in 6.0 mi WNW 8.1 mph - N/A   Haze
12:53 PM 90.0 °F 102.5 °F 77.0 °F 65% 29.98 in 6.0 mi WNW 4.6 mph - N/A   Haze
1:53 PM 91.0 °F 104.2 °F 77.0 °F 63% 29.97 in 7.0 mi WNW 5.8 mph - N/A   Clear
2:53 PM 91.9 °F 105.9 °F 77.0 °F 62% 29.94 in 8.0 mi West 6.9 mph - N/A   Clear
3:53 PM 93.9 °F 105.4 °F 75.0 °F 54% 29.93 in 9.0 mi West 8.1 mph - N/A   Clear
4:53 PM 93.9 °F 102.1 °F 72.0 °F 49% 29.92 in 10.0 mi West 8.1 mph - N/A   Clear
5:53 PM 93.9 °F 100.8 °F 71.1 °F 47% 29.91 in 9.0 mi West 5.8 mph - N/A   Clear
6:53 PM 91.9 °F 100.7 °F 73.0 °F 54% 29.92 in 9.0 mi West 4.6 mph - N/A   Clear
8:53 PM 91.9 °F 103.2 °F 75.0 °F 58% 29.93 in 8.0 mi West 4.6 mph - N/A   Partly Cloudy
9:53 PM 91.0 °F 100.4 °F 73.9 °F 57% 29.95 in 8.0 mi WSW 4.6 mph - N/A   Clear
10:53 PM 91.0 °F 106.2 °F 78.1 °F 66% 29.95 in 6.0 mi WNW 8.1 mph - N/A   Haze
11:53 PM 90.0 °F 104.5 °F 78.1 °F 68% 29.94 in 8.0 mi WNW 9.2 mph - N/A   Clear